STATION HISTORICAL DATA FROM WUNDERGROUND.COM FOR HIGH PARK VILLAGE,TORONTO,ON,CANADA
 
Daily Summary for March 24, 2019 Units:  Metric    English   Both
Next Day »
Daily Weekly Monthly Yearly Custom
  Current: High: Low: Average:
Temperature: 3.5 °C 11.7 °C 0.6 °C 4.2 °C
Dew Point: -1.8 °C 0.7 °C -6.8 °C -2.6 °C
Humidity: 68% 73% 46% 62%
Wind Speed: 13km/h 20.4km/h 0km/h 4.7km/h
Wind Gust: 9.8km/h 13.4km/h - -
WindNNW - - SSW
Pressure: 1017.2 hPa 1020.9 hPa 1014.8 hPa -
Precipitation: 0 mm      
Historical Graphs
 
 
Tabular Data for March 24, 2019
Time Temperature Dew Point Pressure Wind Wind Speed Wind Gust Humidity Rainfall Rate (Hourly) Solar Conditions
00:04 0.8 °C -6.8 °C 1020.9 hPa South 1.9 km/h 1.4 km/h 57% 0 mm 0.00 W/m2
00:09 0.8 °C -6.8 °C 1020.5 hPa South 1.9 km/h 0.8 km/h 57% 0 mm 0.00 W/m2
00:14 0.7 °C -6.8 °C 1020.5 hPa South 2.3 km/h 1.3 km/h 57% 0 mm 0.00 W/m2
00:19 0.7 °C -6.8 °C 1020.5 hPa South 3.7 km/h 3.4 km/h 57% 0 mm 0.00 W/m2
00:24 0.7 °C -6.6 °C 1020.5 hPa South 4.5 km/h 2.4 km/h 58% 0 mm 0.00 W/m2
00:29 0.7 °C -6.6 °C 1020.5 hPa South 4.5 km/h 3.4 km/h 58% 0 mm 0.00 W/m2
00:34 0.7 °C -6.6 °C 1020.5 hPa South 2.3 km/h 3.5 km/h 58% 0 mm 0.00 W/m2
00:39 0.7 °C -6.6 °C 1020.5 hPa South 3.7 km/h 2.3 km/h 58% 0 mm 0.00 W/m2
00:44 0.7 °C -6.4 °C 1020.5 hPa South 4.5 km/h 2.1 km/h 59% 0 mm 0.00 W/m2
00:49 0.8 °C -6.3 °C 1020.5 hPa South 1.9 km/h 0.6 km/h 59% 0 mm 0.00 W/m2
00:54 0.8 °C -6.1 °C 1020.5 hPa South 3.7 km/h 1 km/h 60% 0 mm 0.00 W/m2
00:59 0.8 °C -6.1 °C 1020.2 hPa South 3.7 km/h 1.8 km/h 60% 0 mm 0.00 W/m2
01:04 0.8 °C -5.9 °C 1020.2 hPa South 2.3 km/h 0.2 km/h 61% 0 mm 0.00 W/m2
01:09 0.8 °C -5.9 °C 1020.2 hPa South 3.7 km/h 1.6 km/h 61% 0 mm 0.00 W/m2
01:14 0.8 °C -5.7 °C 1020.2 hPa South 3.7 km/h 1.8 km/h 62% 0 mm 0.00 W/m2
01:19 0.7 °C -5.9 °C 1020.2 hPa South 3.7 km/h 2.3 km/h 61% 0 mm 0.00 W/m2
01:24 0.7 °C -5.7 °C 1020.2 hPa South 1.9 km/h 0.8 km/h 62% 0 mm 0.00 W/m2
01:29 0.7 °C -5.8 °C 1020.2 hPa South 1.9 km/h 0.3 km/h 62% 0 mm 0.00 W/m2
01:34 0.7 °C -5.6 °C 1019.9 hPa South 1.9 km/h 1.1 km/h 63% 0 mm 0.00 W/m2
01:39 0.7 °C -5.3 °C 1019.9 hPa South 1.9 km/h 0.8 km/h 64% 0 mm 0.00 W/m2
01:44 0.7 °C -5.2 °C 1019.9 hPa South 2.3 km/h 1 km/h 65% 0 mm 0.00 W/m2
01:49 0.7 °C -5.2 °C 1019.9 hPa SSE 2.3 km/h 0.3 km/h 65% 0 mm 0.00 W/m2
01:54 0.7 °C -4.9 °C 1019.9 hPa South 1.9 km/h 0.8 km/h 66% 0 mm 0.00 W/m2
01:59 0.7 °C -4.9 °C 1019.9 hPa South 3.7 km/h 0.5 km/h 66% 0 mm 0.00 W/m2
02:04 0.7 °C -4.7 °C 1019.9 hPa South 2.3 km/h 3.7 km/h 67% 0 mm 0.00 W/m2
02:09 0.7 °C -4.7 °C 1019.5 hPa South 3.7 km/h 3.2 km/h 67% 0 mm 0.00 W/m2
02:14 0.6 °C -4.8 °C 1019.5 hPa South 3.7 km/h 1.8 km/h 67% 0 mm 0.00 W/m2
02:19 0.6 °C -4.8 °C 1019.5 hPa South 3.7 km/h 0.5 km/h 67% 0 mm 0.00 W/m2
02:24 0.6 °C -4.8 °C 1019.5 hPa South 3.7 km/h 1 km/h 67% 0 mm 0.00 W/m2
02:29 0.6 °C -4.6 °C 1019.5 hPa South 3.7 km/h 0.8 km/h 68% 0 mm 0.00 W/m2
02:34 0.6 °C -4.6 °C 1019.9 hPa South 2.3 km/h 0.5 km/h 68% 0 mm 0.00 W/m2
02:39 0.6 °C -4.4 °C 1019.5 hPa South 3.7 km/h 1.6 km/h 69% 0 mm 0.00 W/m2
02:44 0.7 °C -4.3 °C 1019.5 hPa South 3.7 km/h 1.9 km/h 69% 0 mm 0.00 W/m2
02:49 0.7 °C -4.2 °C 1019.5 hPa South 2.3 km/h 1.1 km/h 70% 0 mm 0.00 W/m2
02:54 0.7 °C -4.1 °C 1019.5 hPa South 1.9 km/h 0.2 km/h 70% 0 mm 0.00 W/m2
02:59 0.7 °C -4.1 °C 1019.2 hPa South 3.7 km/h 0.6 km/h 70% 0 mm 0.00 W/m2
03:04 0.7 °C -3.9 °C 1019.2 hPa South 2.3 km/h 1.8 km/h 71% 0 mm 0.00 W/m2
03:09 0.7 °C -3.9 °C 1019.2 hPa South 1.9 km/h 0.3 km/h 71% 0 mm 0.00 W/m2
03:14 0.8 °C -3.9 °C 1019.2 hPa South 4.5 km/h 1.8 km/h 71% 0 mm 0.00 W/m2
03:19 0.8 °C -3.7 °C 1018.8 hPa South 1.9 km/h 1.3 km/h 72% 0 mm 0.00 W/m2
03:24 0.7 °C -3.7 °C 1018.8 hPa Calm   0.2 km/h 72% 0 mm 0.00 W/m2
03:29 0.7 °C -3.7 °C 1018.8 hPa South 1.9 km/h 0.2 km/h 72% 0 mm 0.00 W/m2
03:34 0.8 °C -3.7 °C 1018.8 hPa South 3.7 km/h 1.6 km/h 72% 0 mm 0.00 W/m2
03:39 0.8 °C -3.7 °C 1019.2 hPa South 3.7 km/h 1.1 km/h 72% 0 mm 0.00 W/m2
03:44 0.8 °C -3.5 °C 1018.8 hPa SSE 3.7 km/h 0.2 km/h 73% 0 mm 0.00 W/m2
03:49 0.7 °C -3.6 °C 1018.8 hPa South 2.3 km/h 1.1 km/h 73% 0 mm 0.00 W/m2
03:54 0.7 °C -3.6 °C 1018.8 hPa South 4.5 km/h 2.1 km/h 73% 0 mm 0.00 W/m2
03:59 0.7 °C -3.6 °C 1018.8 hPa South 3.7 km/h 1.3 km/h 73% 0 mm 0.00 W/m2
04:04 0.7 °C -3.6 °C 1018.8 hPa South 1.9 km/h 0.2 km/h 73% 0 mm 0.00 W/m2
04:09 0.7 °C -3.6 °C 1018.5 hPa South 1.9 km/h 0.5 km/h 73% 0 mm 0.00 W/m2
04:14 0.7 °C -3.6 °C 1018.8 hPa South 3.7 km/h 1 km/h 73% 0 mm 0.00 W/m2
04:19 0.7 °C -3.6 °C 1018.8 hPa South 1.9 km/h 1 km/h 73% 0 mm 0.00 W/m2
04:24 0.7 °C -3.8 °C 1018.8 hPa South 1.9 km/h   72% 0 mm 0.00 W/m2
04:29 0.6 °C -3.8 °C 1018.8 hPa Calm     72% 0 mm 0.00 W/m2
04:34 0.6 °C -4 °C 1018.8 hPa South 2.3 km/h 0.8 km/h 71% 0 mm 0.00 W/m2
04:39 0.6 °C -4 °C 1018.5 hPa South 1.9 km/h 1 km/h 71% 0 mm 0.00 W/m2
04:44 0.6 °C -4.2 °C 1018.5 hPa Calm   1.4 km/h 70% 0 mm 0.00 W/m2
04:49 0.6 °C -4.3 °C 1018.5 hPa Calm   1 km/h 70% 0 mm 0.00 W/m2
04:54 0.6 °C -4.2 °C 1018.8 hPa South 1.9 km/h 0.2 km/h 70% 0 mm 0.00 W/m2
04:59 0.6 °C -4.2 °C 1018.8 hPa South 1.9 km/h 0.5 km/h 70% 0 mm 0.00 W/m2
05:04 0.6 °C -4.2 °C 1018.8 hPa South 3.7 km/h 1 km/h 70% 0 mm 0.00 W/m2
05:09 0.7 °C -4.2 °C 1018.8 hPa South 1.9 km/h 1.4 km/h 70% 0 mm 0.00 W/m2
05:14 0.7 °C -3.9 °C 1018.8 hPa South 3.7 km/h 2.6 km/h 71% 0 mm 0.00 W/m2
05:19 0.8 °C -3.9 °C 1018.8 hPa South 3.7 km/h 1.9 km/h 71% 0 mm 0.00 W/m2
05:24 0.8 °C -3.8 °C 1018.8 hPa South 3.7 km/h 4.3 km/h 71% 0 mm 0.00 W/m2
05:29 0.8 °C -3.8 °C 1018.8 hPa South 3.7 km/h 2.1 km/h 71% 0 mm 0.00 W/m2
05:34 0.9 °C -3.8 °C 1018.8 hPa SSE 4.5 km/h 3.9 km/h 71% 0 mm 0.00 W/m2
05:39 0.9 °C -3.8 °C 1018.8 hPa South 3.7 km/h 1 km/h 71% 0 mm 0.00 W/m2
05:44 0.9 °C -3.9 °C 1018.8 hPa South 3.7 km/h 1.1 km/h 70% 0 mm 0.00 W/m2
05:49 0.9 °C -3.9 °C 1018.5 hPa South 3.7 km/h 1.9 km/h 70% 0 mm 0.00 W/m2
05:54 1 °C -3.8 °C 1018.8 hPa South 3.7 km/h 0.8 km/h 70% 0 mm 0.00 W/m2
05:59 1 °C -3.8 °C 1018.8 hPa South 2.3 km/h 1.8 km/h 70% 0 mm 0.00 W/m2
06:04 1.1 °C -3.8 °C 1018.8 hPa South 4.5 km/h 2.1 km/h 70% 0 mm 0.00 W/m2
06:09 1.1 °C -4 °C 1018.8 hPa South 3.7 km/h   69% 0 mm 0.00 W/m2
06:14 1.1 °C -4 °C 1018.8 hPa South 2.3 km/h 0.2 km/h 69% 0 mm 0.00 W/m2
06:19 1.1 °C -4 °C 1018.8 hPa South 1.9 km/h 3.5 km/h 69% 0 mm 0.00 W/m2
06:24 1.1 °C -4.1 °C 1018.8 hPa South 3.7 km/h 2.1 km/h 68% 0 mm 0.00 W/m2
06:29 1.1 °C -4.1 °C 1018.8 hPa South 2.3 km/h 1.1 km/h 68% 0 mm 0.00 W/m2
06:34 1.2 °C -4.1 °C 1018.8 hPa South 4.5 km/h 3.9 km/h 68% 0 mm 0.00 W/m2
06:39 1.2 °C -4.2 °C 1018.5 hPa South 2.3 km/h 1.1 km/h 67% 0 mm 0.00 W/m2
06:44 1.3 °C -4.2 °C 1018.5 hPa South 7.4 km/h 1.6 km/h 67% 0 mm 0.00 W/m2
06:49 1.3 °C -4.1 °C 1018.5 hPa South 3.7 km/h 4 km/h 67% 0 mm 0.00 W/m2
06:54 1.3 °C -4.3 °C 1018.5 hPa South 3.7 km/h 2.1 km/h 66% 0 mm 0.00 W/m2
06:59 1.4 °C -4.3 °C 1018.8 hPa South 1.9 km/h 1.8 km/h 66% 0 mm 0.00 W/m2
07:04 1.4 °C -4.3 °C 1018.8 hPa South 7.4 km/h 4.8 km/h 66% 0 mm 0.00 W/m2 CLR
07:09 1.4 °C -4.1 °C 1018.8 hPa South 7.4 km/h 2.6 km/h 67% 0 mm 0.00 W/m2 CLR
07:14 1.4 °C -4.1 °C 1018.8 hPa South 7.4 km/h 3.2 km/h 67% 0 mm 0.00 W/m2 CLR
07:19 1.4 °C -4.1 °C 1018.8 hPa South 1.9 km/h 0.8 km/h 67% 0 mm 0.00 W/m2 CLR
07:24 1.4 °C -3.8 °C 1018.8 hPa SSE 3.7 km/h 1.9 km/h 68% 0 mm 0.00 W/m2 CLR
07:29 1.4 °C -3.8 °C 1018.5 hPa SSE 2.3 km/h 0.5 km/h 68% 0 mm 5.00 W/m2 CLR
07:34 1.4 °C -3.8 °C 1018.5 hPa South 3.7 km/h 0.3 km/h 68% 0 mm 9.00 W/m2 CLR
07:39 1.4 °C -3.8 °C 1018.8 hPa South 4.5 km/h 3.2 km/h 68% 0 mm 11.00 W/m2 CLR
07:44 1.4 °C -3.8 °C 1018.8 hPa South 4.5 km/h 2.4 km/h 68% 0 mm 7.00 W/m2 CLR
07:49 1.4 °C -3.6 °C 1018.8 hPa SSE 3.7 km/h 1.8 km/h 69% 0 mm 9.00 W/m2 CLR
07:54 1.4 °C -3.6 °C 1018.5 hPa SSE 3.7 km/h 2.6 km/h 69% 0 mm 9.00 W/m2 CLR
07:59 1.5 °C -3.6 °C 1018.5 hPa South 4.5 km/h 1.8 km/h 69% 0 mm 12.00 W/m2 CLR
08:04 1.6 °C -3.7 °C 1018.5 hPa South 4.5 km/h 3.1 km/h 68% 0 mm 14.00 W/m2 CLR
08:09 1.6 °C -3.7 °C 1018.5 hPa South 4.5 km/h 2.1 km/h 68% 0 mm 16.00 W/m2 CLR
08:14 1.6 °C -3.7 °C 1018.5 hPa South 3.7 km/h 0.2 km/h 68% 0 mm 18.00 W/m2 CLR
08:19 1.7 °C -3.4 °C 1018.5 hPa South 1.9 km/h 0.5 km/h 69% 0 mm 19.00 W/m2 CLR
08:24 1.7 °C -3.6 °C 1018.8 hPa South 3.7 km/h 0.6 km/h 68% 0 mm 19.00 W/m2 CLR
08:29 1.8 °C -3.4 °C 1018.5 hPa South 2.3 km/h 0.3 km/h 68% 0 mm 23.00 W/m2 CLR
08:34 2 °C -3.4 °C 1018.8 hPa South 3.7 km/h 0.6 km/h 67% 0 mm 26.00 W/m2 CLR
08:39 2.2 °C -3.5 °C 1018.5 hPa South 7.4 km/h 4.2 km/h 66% 0 mm 32.00 W/m2 CLR
08:44 2.2 °C -3.4 °C 1018.5 hPa South 7.4 km/h 4 km/h 66% 0 mm 39.00 W/m2 CLR
08:49 2.3 °C -3.3 °C 1018.5 hPa South 7.4 km/h 1.8 km/h 66% 0 mm 33.00 W/m2 CLR
08:54 2.4 °C -3.2 °C 1018.5 hPa SSE 7.4 km/h 2.7 km/h 66% 0 mm 33.00 W/m2 CLR
08:59 2.6 °C -3.2 °C 1018.5 hPa South 1.9 km/h 1.1 km/h 66% 0 mm 35.00 W/m2 CLR
09:04 2.7 °C -2.8 °C 1018.5 hPa South 3.7 km/h 0.8 km/h 67% 0 mm 33.00 W/m2 OVC
09:09 2.7 °C -3 °C 1018.5 hPa South 3.7 km/h 1.3 km/h 66% 0 mm 33.00 W/m2 OVC
09:14 2.8 °C -2.9 °C 1018.5 hPa SSE 4.5 km/h 3.5 km/h 66% 0 mm 39.00 W/m2 OVC
09:19 2.9 °C -2.8 °C 1018.2 hPa South 4.5 km/h 3.2 km/h 66% 0 mm 37.00 W/m2 OVC
09:24 3.1 °C -2.7 °C 1018.2 hPa South 1.9 km/h 0.6 km/h 66% 0 mm 37.00 W/m2 OVC
09:29 3.1 °C -2.6 °C 1018.2 hPa SSE 3.7 km/h 2.1 km/h 66% 0 mm 39.00 W/m2 OVC
09:34 3.2 °C -2.6 °C 1018.2 hPa South 4.5 km/h 3.4 km/h 66% 0 mm 39.00 W/m2 OVC
09:39 3.2 °C -2.5 °C 1018.2 hPa SSE 7.4 km/h 2.1 km/h 66% 0 mm 42.00 W/m2 OVC
09:44 3.3 °C -2.7 °C 1018.2 hPa South 3.7 km/h 1.3 km/h 65% 0 mm 46.00 W/m2 OVC
09:49 3.4 °C -2.8 °C 1018.2 hPa South 3.7 km/h 2.4 km/h 64% 0 mm 49.00 W/m2 OVC
09:54 3.4 °C -2.7 °C 1018.2 hPa South 7.4 km/h 5.5 km/h 64% 0 mm 53.00 W/m2 OVC
09:59 3.6 °C -2.6 °C 1018.2 hPa South 7.4 km/h 1.9 km/h 64% 0 mm 53.00 W/m2 OVC
10:04 3.6 °C -2.8 °C 1018.2 hPa SSE 3.7 km/h 1.8 km/h 63% 0 mm 53.00 W/m2 OVC
10:09 3.7 °C -2.4 °C 1018.2 hPa South 7.4 km/h 3.1 km/h 64% 0 mm 54.00 W/m2 OVC
10:14 3.9 °C -2.5 °C 1018.5 hPa SSE 3.7 km/h 0.2 km/h 63% 0 mm 58.00 W/m2 OVC
10:19 4.1 °C -2.3 °C 1018.2 hPa South 1.9 km/h 1 km/h 63% 0 mm 62.00 W/m2 OVC
10:24 4.2 °C -2.4 °C 1018.2 hPa South 7.4 km/h 0.8 km/h 62% 0 mm 58.00 W/m2 OVC
10:29 4.3 °C -2.5 °C 1018.2 hPa South 1.9 km/h 0.2 km/h 61% 0 mm 58.00 W/m2 OVC
10:34 4.5 °C -2.3 °C 1018.2 hPa South 3.7 km/h 1.1 km/h 61% 0 mm 58.00 W/m2 OVC
10:39 4.7 °C -2.2 °C 1018.2 hPa South 3.7 km/h 2.1 km/h 61% 0 mm 56.00 W/m2 OVC
10:44 4.8 °C -2.3 °C 1018.2 hPa SSE 3.7 km/h 1.1 km/h 60% 0 mm 53.00 W/m2 OVC
10:49 4.8 °C -2.3 °C 1018.2 hPa South 3.7 km/h 0.8 km/h 60% 0 mm 51.00 W/m2 OVC
10:54 4.8 °C -2.3 °C 1018.2 hPa South 2.3 km/h 1 km/h 60% 0 mm 49.00 W/m2 OVC
10:59 4.8 °C -2.3 °C 1018.2 hPa SSE 9.3 km/h 3.9 km/h 60% 0 mm 47.00 W/m2 OVC
11:04 4.7 °C -2.4 °C 1018.2 hPa SSE 7.4 km/h 4.3 km/h 60% 0 mm 47.00 W/m2 OVC
11:09 4.7 °C -2.4 °C 1018.2 hPa SSE 3.7 km/h 1.3 km/h 60% 0 mm 49.00 W/m2 OVC
11:14 4.7 °C -2.2 °C 1018.2 hPa South 3.7 km/h 1.1 km/h 61% 0 mm 51.00 W/m2 OVC
11:19 4.7 °C -2.2 °C 1017.8 hPa South 3.7 km/h 1.4 km/h 61% 0 mm 56.00 W/m2 OVC
11:24 4.7 °C -2.2 °C 1017.8 hPa South 1.9 km/h 1.4 km/h 61% 0 mm 58.00 W/m2 OVC
11:29 4.8 °C -2.1 °C 1018.2 hPa South 3.7 km/h 1.8 km/h 61% 0 mm 62.00 W/m2 OVC
11:34 4.9 °C -2 °C 1017.8 hPa South 3.7 km/h 1.3 km/h 61% 0 mm 63.00 W/m2 OVC
11:39 5 °C -1.9 °C 1017.8 hPa South 9.3 km/h 5.8 km/h 61% 0 mm 69.00 W/m2 OVC
11:44 5.1 °C -1.8 °C 1017.8 hPa South 3.7 km/h 1.6 km/h 61% 0 mm 67.00 W/m2 OVC
11:49 5.1 °C -1.8 °C 1017.8 hPa South 2.3 km/h 1.1 km/h 61% 0 mm 65.00 W/m2 OVC
11:54 5.2 °C -1.9 °C 1017.8 hPa South 1.9 km/h 0.2 km/h 60% 0 mm 62.00 W/m2 OVC
11:59 5.2 °C -1.9 °C 1017.5 hPa Calm     60% 0 mm 54.00 W/m2 OVC
12:04 5.3 °C -1.8 °C 1017.5 hPa South 1.9 km/h   60% 0 mm 56.00 W/m2 OVC
12:09 5.4 °C -1.7 °C 1017.5 hPa Calm     60% 0 mm 54.00 W/m2 OVC
12:14 5.6 °C -1.8 °C 1017.5 hPa Calm     59% 0 mm 58.00 W/m2 OVC
12:19 5.7 °C -1.7 °C 1017.2 hPa South 1.9 km/h 0.2 km/h 59% 0 mm 63.00 W/m2 OVC
12:24 5.8 °C -1.6 °C 1017.2 hPa Calm     59% 0 mm 65.00 W/m2 OVC
12:29 5.9 °C -1.7 °C 1017.2 hPa Calm     58% 0 mm 63.00 W/m2 OVC
12:34 5.9 °C -1.7 °C 1017.2 hPa Calm     58% 0 mm 60.00 W/m2 OVC
12:39 6.1 °C -1.6 °C 1016.8 hPa Calm     58% 0 mm 56.00 W/m2 OVC
12:44 6.2 °C -1.4 °C 1016.8 hPa Calm     58% 0 mm 60.00 W/m2 OVC
12:49 6.4 °C -1.1 °C 1016.8 hPa Calm     59% 0 mm 58.00 W/m2 OVC
12:54 6.4 °C -0.7 °C 1016.8 hPa Calm     60% 0 mm 58.00 W/m2 OVC
12:59 6.4 °C -0.7 °C 1016.5 hPa Calm     60% 0 mm 67.00 W/m2 OVC
13:04 6.5 °C -0.9 °C 1016.5 hPa Calm     59% 0 mm 67.00 W/m2 OVC
13:09 6.6 °C -1.1 °C 1016.5 hPa Calm     58% 0 mm 67.00 W/m2 OVC
13:14 6.8 °C -1.1 °C 1016.5 hPa Calm   0.2 km/h 57% 0 mm 69.00 W/m2 OVC
13:19 6.9 °C -1.3 °C 1016.5 hPa NNW 1.9 km/h 0.2 km/h 56% 0 mm 67.00 W/m2 OVC
13:24 6.9 °C -1.2 °C 1016.5 hPa NW 1.9 km/h   56% 0 mm 65.00 W/m2 OVC
13:29 7.1 °C -1.4 °C 1016.5 hPa WNW 7.4 km/h 3.9 km/h 55% 0 mm 63.00 W/m2 OVC
13:34 7.1 °C -1.4 °C 1016.5 hPa SSW 7.4 km/h 5.1 km/h 55% 0 mm 72.00 W/m2 OVC
13:39 7.1 °C -1.4 °C 1016.5 hPa SE 11.1 km/h 1.3 km/h 55% 0 mm 81.00 W/m2 OVC
13:44 7 °C -1.4 °C 1016.5 hPa NW 1.9 km/h   55% 0 mm 88.00 W/m2 OVC
13:49 7.1 °C -1.3 °C 1016.5 hPa NNW 3.7 km/h 2.4 km/h 55% 0 mm 104.00 W/m2 OVC
13:54 7.2 °C -1 °C 1016.5 hPa Calm   0.2 km/h 56% 0 mm 116.00 W/m2 OVC
13:59 7.3 °C -1.2 °C 1016.1 hPa WNW 7.4 km/h 3.1 km/h 55% 0 mm 116.00 W/m2 OVC
14:04 7.4 °C -1.1 °C 1016.5 hPa SW 1.9 km/h 0.2 km/h 55% 0 mm 100.00 W/m2 OVC
14:09 7.5 °C -0.9 °C 1016.1 hPa NW 6.8 km/h 0.6 km/h 55% 0 mm 104.00 W/m2 OVC
14:14 7.5 °C -0.9 °C 1016.1 hPa WSW 9.3 km/h 1.3 km/h 55% 0 mm 93.00 W/m2 OVC
14:19 7.4 °C -1 °C 1016.1 hPa WSW 7.4 km/h 2.6 km/h 55% 0 mm 109.00 W/m2 OVC
14:24 7.4 °C -1 °C 1015.8 hPa SSE 7.4 km/h 2.4 km/h 55% 0 mm 84.00 W/m2 OVC
14:29 7.4 °C -1 °C 1015.8 hPa SE 1.9 km/h 2.1 km/h 55% 0 mm 77.00 W/m2 OVC
14:34 7.4 °C -1 °C 1016.1 hPa NNW 4.5 km/h 1 km/h 55% 0 mm 72.00 W/m2 OVC
14:39 7.4 °C -1 °C 1016.1 hPa SSE 2.3 km/h 1 km/h 55% 0 mm 70.00 W/m2 OVC
14:44 7.4 °C -1 °C 1016.1 hPa NW 3.7 km/h 2.4 km/h 55% 0 mm 70.00 W/m2 OVC
14:49 7.4 °C -1 °C 1016.1 hPa SSW 9.3 km/h 5 km/h 55% 0 mm 72.00 W/m2 OVC
14:54 7.4 °C -1 °C 1015.8 hPa West 1.9 km/h 1 km/h 55% 0 mm 70.00 W/m2 OVC
14:59 7.5 °C -0.9 °C 1015.8 hPa South 7.4 km/h 3.5 km/h 55% 0 mm 74.00 W/m2 OVC
15:04 7.6 °C -0.9 °C 1015.8 hPa WNW 1.9 km/h 0.2 km/h 55% 0 mm 72.00 W/m2 OVC
15:09 7.6 °C -0.8 °C 1015.8 hPa NW 4.5 km/h 0.5 km/h 55% 0 mm 74.00 W/m2 OVC
15:14 7.7 °C -0.8 °C 1015.8 hPa ESE 11.1 km/h 6 km/h 55% 0 mm 98.00 W/m2 OVC
15:19 7.7 °C -0.8 °C 1015.8 hPa South 7.4 km/h 3.9 km/h 55% 0 mm 116.00 W/m2 OVC
15:24 7.7 °C -0.8 °C 1015.8 hPa SE 11.1 km/h 4.5 km/h 55% 0 mm 98.00 W/m2 OVC
15:29 7.8 °C -0.7 °C 1015.8 hPa ESE 1.9 km/h 0.2 km/h 55% 0 mm 107.00 W/m2 OVC
15:34 7.8 °C -0.6 °C 1015.8 hPa WNW 1.9 km/h   55% 0 mm 62.00 W/m2 OVC
15:39 7.9 °C -0.6 °C 1015.5 hPa WNW 2.3 km/h 1.1 km/h 55% 0 mm 60.00 W/m2 OVC
15:44 7.9 °C -0.8 °C 1015.8 hPa North 7.4 km/h 1.6 km/h 54% 0 mm 77.00 W/m2 OVC
15:49 8 °C -0.7 °C 1015.5 hPa Calm     54% 0 mm 86.00 W/m2 OVC
15:54 8 °C -0.7 °C 1015.5 hPa NE 1.9 km/h 1.8 km/h 54% 0 mm 105.00 W/m2 OVC
15:59 8 °C -0.7 °C 1015.5 hPa SSE 1.9 km/h 0.3 km/h 54% 0 mm 113.00 W/m2 OVC
16:04 8.1 °C -0.7 °C 1015.5 hPa South 2.3 km/h 1.3 km/h 54% 0 mm 77.00 W/m2 OVC
16:09 8 °C -0.7 °C 1015.5 hPa SSE 7.4 km/h 8.2 km/h 54% 0 mm 69.00 W/m2 OVC
16:14 7.9 °C -0.8 °C 1015.5 hPa WSW 7.4 km/h 3.5 km/h 54% 0 mm 81.00 W/m2 OVC
16:19 7.8 °C -0.9 °C 1015.5 hPa SSE 11.1 km/h 5.8 km/h 54% 0 mm 128.00 W/m2 OVC
16:24 8 °C -0.5 °C 1015.5 hPa South 4.5 km/h 1.8 km/h 55% 0 mm 274.00 W/m2 OVC
16:29 8.2 °C -0.5 °C 1015.5 hPa SSW 9.3 km/h 1.8 km/h 54% 0 mm 186.00 W/m2 OVC
16:34 8.6 °C -0.5 °C 1015.1 hPa South 3.7 km/h   53% 0 mm 172.00 W/m2 OVC
16:39 8.9 °C -0.4 °C 1015.1 hPa WSW 1.9 km/h 0.3 km/h 52% 0 mm 127.00 W/m2 OVC
16:44 9.1 °C -0.6 °C 1015.5 hPa NNW 3.7 km/h 3.4 km/h 51% 0 mm 135.00 W/m2 OVC
16:49 8.9 °C -0.4 °C 1015.1 hPa Calm   1.3 km/h 52% 0 mm 197.00 W/m2 OVC
16:54 9.1 °C -0.2 °C 1015.1 hPa NNW 7.4 km/h 1.4 km/h 52% 0 mm 415.00 W/m2 OVC
16:59 10 °C 0.1 °C 1015.1 hPa SSW 7.4 km/h 6.3 km/h 50% 0 mm 343.00 W/m2 OVC
17:04 10.3 °C 0.1 °C 1014.8 hPa SE 1.9 km/h 0.8 km/h 49% 0 mm 394.00 W/m2 OVC
17:09 10.7 °C 0.4 °C 1014.8 hPa Calm   0.3 km/h 49% 0 mm 383.00 W/m2 OVC
17:14 11.3 °C 0.7 °C 1014.8 hPa Calm   0.5 km/h 48% 0 mm 338.00 W/m2 OVC
17:19 11.7 °C 0.5 °C 1015.1 hPa North 3.7 km/h 2.1 km/h 46% 0 mm 258.00 W/m2 OVC
17:24 11.2 °C 0.3 °C 1015.1 hPa East 7.4 km/h 2.4 km/h 47% 0 mm 272.00 W/m2 OVC
17:29 10.8 °C 0.3 °C 1015.1 hPa NNW 9.3 km/h 1.6 km/h 48% 0 mm 162.00 W/m2 OVC
17:34 10.6 °C 0 °C 1015.1 hPa North 9 km/h 2.4 km/h 48% 0 mm 151.00 W/m2 OVC
17:39 10.2 °C 0 °C 1015.1 hPa NNW 11.3 km/h 6 km/h 49% 0 mm 79.00 W/m2 OVC
17:44 9.8 °C -0.4 °C 1015.1 hPa NW 4.5 km/h 3.5 km/h 49% 0 mm 58.00 W/m2 OVC
17:49 9.5 °C -0.4 °C 1015.1 hPa SSE 4.5 km/h 2.7 km/h 50% 0 mm 53.00 W/m2 OVC
17:54 9.3 °C -0.3 °C 1015.1 hPa NW 11.1 km/h 4.3 km/h 51% 0 mm 51.00 W/m2 OVC
17:59 9.2 °C -0.4 °C 1015.1 hPa West 3.7 km/h 3.7 km/h 51% 0 mm 44.00 W/m2 OVC
18:04 9.1 °C -0.3 °C 1015.5 hPa South 16.7 km/h 8.2 km/h 52% 0 mm 35.00 W/m2
18:09 8.9 °C -0.4 °C 1015.5 hPa SSW 20.4 km/h 12.6 km/h 52% 0 mm 32.00 W/m2 CLR
18:14 8.7 °C -0.4 °C 1015.5 hPa South 7.4 km/h 1.9 km/h 53% 0 mm 26.00 W/m2 CLR
18:19 8.6 °C -0.2 °C 1015.5 hPa NW 3.7 km/h 3.9 km/h 54% 0 mm 21.00 W/m2 CLR
18:24 8.6 °C -0.2 °C 1015.5 hPa SSW 9.3 km/h 7.4 km/h 54% 0 mm 18.00 W/m2 CLR
18:29 8.4 °C -0.3 °C 1015.5 hPa WNW 2.3 km/h 1.4 km/h 54% 0 mm 18.00 W/m2 CLR
18:34 8.4 °C -0.1 °C 1015.5 hPa ESE 9.3 km/h 7.1 km/h 55% 0 mm 18.00 W/m2 CLR
18:39 8.3 °C -0.4 °C 1015.5 hPa NW 18.5 km/h 7.1 km/h 54% 0 mm 18.00 W/m2 CLR
18:44 8.2 °C -0.6 °C 1015.5 hPa NNW 9.3 km/h 8 km/h 54% 0 mm 16.00 W/m2 CLR
18:49 8.1 °C -0.7 °C 1015.8 hPa SSW 13 km/h 7.7 km/h 54% 0 mm 14.00 W/m2 CLR
18:54 8 °C -0.5 °C 1015.8 hPa SW 7.4 km/h 6.1 km/h 55% 0 mm 12.00 W/m2 CLR
18:59 7.9 °C -0.6 °C 1015.8 hPa NW 4.5 km/h 7.9 km/h 55% 0 mm 12.00 W/m2 CLR
19:04 7.8 °C -0.7 °C 1015.8 hPa NW 18.5 km/h 9.2 km/h 55% 0 mm 11.00 W/m2 CLR
19:09 7.7 °C -1.1 °C 1015.8 hPa NW 20.4 km/h 7.6 km/h 54% 0 mm 9.00 W/m2 CLR
19:14 7.6 °C -1.2 °C 1015.8 hPa South 13 km/h 6.6 km/h 54% 0 mm 5.00 W/m2 CLR
19:19 7.4 °C -1.3 °C 1015.8 hPa South 9.3 km/h 5.5 km/h 54% 0 mm 0.00 W/m2 CLR
19:24 7.4 °C -1.1 °C 1016.1 hPa NW 7.4 km/h 3.4 km/h 55% 0 mm 0.00 W/m2 CLR
19:29 7.3 °C -1.2 °C 1016.1 hPa NW 9.3 km/h 5.8 km/h 55% 0 mm 0.00 W/m2 CLR
19:34 7.2 °C -0.9 °C 1016.1 hPa SE 9.3 km/h 5 km/h 56% 0 mm 0.00 W/m2 CLR
19:39 7.2 °C -1 °C 1016.1 hPa NNW 13 km/h 10.3 km/h 56% 0 mm 0.00 W/m2 CLR
19:44 6.7 °C -0.7 °C 1016.5 hPa NNW 13 km/h 8.4 km/h 59% 0 mm 0.00 W/m2 CLR
19:49 6.1 °C -0.9 °C 1016.5 hPa NNW 9.3 km/h 6.1 km/h 61% 0 mm 0.00 W/m2 CLR
19:54 5.6 °C -0.9 °C 1016.5 hPa NNW 11.1 km/h 8.5 km/h 63% 0 mm 0.00 W/m2 CLR
19:59 5.2 °C -0.8 °C 1016.8 hPa NW 7.4 km/h 4.7 km/h 65% 0 mm 0.00 W/m2 CLR
20:04 4.9 °C -0.9 °C 1016.8 hPa NNW 13 km/h 8.9 km/h 66% 0 mm 0.00 W/m2
20:09 4.7 °C -1.1 °C 1016.8 hPa WNW 13.5 km/h 12.1 km/h 66% 0 mm 0.00 W/m2 CLR
20:14 4.4 °C -1.4 °C 1017.2 hPa NNE 18 km/h 13.4 km/h 66% 0 mm 0.00 W/m2 CLR
20:19 4.1 °C -1.4 °C 1017.2 hPa NNW 16.7 km/h 11.7 km/h 67% 0 mm 0.00 W/m2 CLR
20:24 3.9 °C -1.7 °C 1017.2 hPa NW 7.4 km/h 8.7 km/h 67% 0 mm 0.00 W/m2 CLR
20:29 3.7 °C -1.6 °C 1017.2 hPa SE 7.4 km/h 7.2 km/h 68% 0 mm 0.00 W/m2 CLR
20:34 3.5 °C -1.8 °C 1017.2 hPa NNW 13 km/h 9.8 km/h 68% 0 mm 0.00 W/m2 CLR
High Park Village Arhives